Regional Weather Roundup
Issued by NWS

Home | Current Version | Previous Version | Graphics & Text | Print | Product List | Glossary On
Versions: 1 2 3 4 5 6 7 8 9 10 11 12 13 14 15 16 17 18 19 20 21 22 23 24 25 26 27 28 29 30 31 32 33 34 35 36 37 38 39 40 41 42 43 44 45 46 47 48 49 50
104
ASUS45 KBOU 111307
RWRCO

WEATHER ROUNDUP FOR COLORADO
NATIONAL WEATHER SERVICE DENVER/BOULDER CO
600 AM MST THU FEB 11 2016

NOTE: "FAIR" INDICATES FEW OR NO CLOUDS BELOW 12000 FEET WITH NO
SIGNIFICANT WEATHER AND/OR OBSTRUCTIONS TO VISIBILITY.

COZ001>005-013-030-031-111400-
...NORTHWEST COLORADO...

CITY           SKY/WX    TMP DP  RH WIND       PRES   REMARKS
CRAIG          CLOUDY    -5  -9  83 CALM      30.40S
HAYDEN         CLOUDY    18   9  68 E14       30.38R WCI   4
MEEKER         CLOUDY     7   2  80 E3        30.39S
MOUNT WERNER   NOT AVBL
STEAMBOAT SPGS CLOUDY     9   7  91 CALM      30.40R
WALDEN         CLOUDY    23   9  54 S8        30.33S WCI  14
$$

COZ006>008-011-111400-
...WEST CENTRAL VALLEYS...

CITY           SKY/WX    TMP DP  RH WIND       PRES   REMARKS
GRAND JUNCTION CLOUDY    24  19  81 E13       30.40S WCI  12
MONTROSE       CLOUDY    18  12  77 SE8       30.45R WCI   8
EAGLE          CLOUDY    10  10 100 SE3       30.47S
RIFLE          CLOUDY    13   8  81 SE3       30.44R
DELTA          CLOUDY    24  20  86 NE3       30.45R
NUCLA          CLOUDY    23  16  74 SE8       30.44S WCI  14
$$

COZ017>023-064>068-111400-
...SOUTHWEST COLORADO...

CITY           SKY/WX    TMP DP  RH WIND       PRES   REMARKS
DURANGO        CLOUDY    17  10  74 N3        30.36F
CORTEZ         CLOUDY    16  12  84 CALM      30.39R
PAGOSA SPRINGS CLOUDY    20  12  69 CALM      30.37S
TELLURIDE      CLOUDY    27   3  36 SE5       30.44R WCI  22
WOLF CREEK PAS CLOUDY    28  -8  20 N13       30.49S WCI  18
$$

COZ009-010-012-014-032>034-037-058>063-111400-
...CENTRAL COLORADO...

CITY           SKY/WX    TMP DP  RH WIND       PRES   REMARKS
ASPEN          CLOUDY    15   6  67 S7        30.40S WCI   5
BUENA VISTA    CLOUDY    22  14  71 NW3       30.35S
COPPER MTN     CLOUDY    27   1  33 SW10G16   30.46R WCI  17
BERTHOUD PASS  FAIR      19   9  63 NW36G45   30.39R WCI  -1
COTTONWOOD PAS CLOUDY    36  -4  18 CALM      30.36F
GUNNISON       CLOUDY   -15 -27  53 E3        30.53R
KREMMLING      CLOUDY    -8 -13  77 CALM      30.46S
LEADVILLE      CLOUDY    18   1  47 E8        30.39S WCI   8
MONARCH PASS   CLOUDY    19   3  49 MISG      30.52R
SALIDA         NOT AVBL
SUNLIGHT       CLOUDY    30   9  40 CALM        N/A
WILKERSON PASS CLOUDY    30   0  27 NW13G23   30.39R WCI  20
$$

COZ069>075-111400-
...SAN LUIS VALLEY/SANGRE DE CRISTO MOUNTAINS...

CITY           SKY/WX    TMP DP  RH WIND       PRES   REMARKS
ALAMOSA        CLOUDY    14  10  84 CALM      30.37S
LA VETA PASS   CLOUDY    28   5  37 S12G18    30.36S WCI  18
SAGUACHE       CLOUDY    23   9  54 NW17      30.37S WCI   9
$$

COZ035-036-038>040-111400-
...NORTHERN COLORADO FRONT RANGE...

CITY           SKY/WX    TMP DP  RH WIND       PRES   REMARKS
DENVER INTL AP CLOUDY    38  17  42 S16       30.14F
DMNS CITY PARK   N/A     40  12  32 SE12      30.14F
AURORA         NOT AVBL
FRONT RANGE AP NOT AVBL
ERIE MUNI ARPT CLOUDY    33  22  66 CALM      30.13F
BOULDER MUN AP CLOUDY    52  10  19 CALM      30.12F
CENTENNIAL     CLOUDY    38  16  40 S10       30.17S
BROOMFIELD     NOT AVBL
FORT COLLINS   CLOUDY    30  19  64 CALM      30.13F
LONGMONT       CLOUDY    36  20  51 N6        30.14S
$$

COZ041-046-047-076>085-087-088-111400-
...PIKES PEAK/PALMER DIVIDE AND SOUTHERN FOOTHILLS...

CITY           SKY/WX    TMP DP  RH WIND       PRES   REMARKS
COLO. SPRINGS  CLOUDY    26  16  65 N9        30.22F WCI  17
A. F. ACADEMY  CLOUDY    23  12  62 N8        30.21F WCI  14
SCHRIEVER AFB  FAIR      30  18  62 SW5       30.22F WCI  25
ELLICOTT       CLOUDY   N/A N/A N/A CALM      30.21S
FALCON         NOT AVBL
FORT CARSON    CLOUDY    31  17  54 N9        30.20S WCI  23
LIMON          CLOUDY    24  14  65 NW8       30.19S WCI  15
MONUMENT HILL  CLOUDY    30  16  55 SW10      30.22F WCI  21
TRINIDAD       CLOUDY    32  12  43 W17       30.23F WCI  21
$$

COZ042>045-048>051-090-091-111400-
...NORTHEAST COLORADO...

CITY           SKY/WX    TMP DP  RH WIND       PRES   REMARKS
GREELEY ARPT   CLOUDY    25  19  80 S3        30.14F
AKRON          CLOUDY    34  20  56 SW13      30.13F WCI  25
BURLINGTON     CLOUDY    25  18  74 SW6       30.16R WCI  18
WRAY           NOT AVBL
STERLING       CLOUDY    30  27  86 S7        30.12F WCI  23
HOLYOKE        CLOUDY    32  28  86 SW7       30.13S WCI  26
FORT MORGAN    CLOUDY    30  19  65 W10       30.14F WCI  21
$$

COZ086-089-092>099-111400-
...SOUTHEAST COLORADO...

CITY           SKY/WX    TMP DP  RH WIND       PRES   REMARKS
PUEBLO         CLEAR     28  20  71 NW6       30.20S WCI  22
LA JUNTA       CLOUDY    32  23  69 W10       30.20R WCI  24
LAMAR          CLOUDY    24  21  88 SW8       30.18S WCI  15
SPRINGFIELD      N/A     25  18  74 W8        30.19F WCI  16
$$




USA.gov is the U.S. government's official web portal to all federal, state and local government web resources and services.